Location: ???????????
(55.5758°N, 38.4970°E)
Time: 17:53:40
(UTC+00:00)

Cosmos 1447 Rocket - Pass Details

Date: 15 November 2025
Orbit: 953 x 995 km, 82.9° (Epoch: 14 December)

Event Time Altitude Azimuth Distance (km) Brightness Sun altitude
Rises 02:47:48 0° 195° (SSW) 3,667 7.4 -18.4°
Reaches altitude 10° 02:50:18 10° 197° (SSW) 2,729 6.7 -18.0°
Maximum altitude 02:56:34 76° 283° (WNW) 1,022 4.4 -17.1°
Drops below altitude 10° 03:02:57 10° 10° (N) 2,770 6.9 -16.3°
Sets 03:05:30 0° 12° (NNE) 3,726 7.6 -15.9°
